Regional Weather Roundup
Issued by NWS Upton, NY

Current Version | Previous Version | Graphics & Text | Print | Product List | Glossary Off
Versions: 1 2 3 4 5 6 7 8 9 10 11 12 13 14 15 16 17 18 19 20 21 22 23 24 25 26 27 28

000
ASUS41 KOKX 041502
RWROKX

REGIONAL WEATHER ROUNDUP
NATIONAL WEATHER SERVICE NEW YORK NY
1100 AM EDT WED MAY 04 2016

NOTE: "FAIR" INDICATES FEW OR NO CLOUDS BELOW 12,000 FEET WITH NO
SIGNIFICANT WEATHER AND/OR OBSTRUCTIONS TO VISIBILITY.

NYZ071-072-176-178-NJZ106-104-041600-
NEW YORK CITY METRO AREA


CITY           SKY/WX    TMP DP  RH WIND       PRES   REMARKS
CENTRAL PARK   CLOUDY    51  43  74 NE14      29.82S
LAGUARDIA APRT CLOUDY    52  47  83 E13       29.80R
KENNEDY INTL   CLOUDY    52  46  80 E10       29.81S
NEWARK/LIBERTY CLOUDY    54  46  74 NE9       29.79R
BRNX BOT. GARD   N/A     48  45  87 E5        29.80F
TETERBORO      CLOUDY    51  42  71 E10       29.79R
$$

NYZ177-179-078>081-041600-
LONG ISLAND NEW YORK

CITY           SKY/WX    TMP DP  RH WIND       PRES   REMARKS
FARMINGDALE    CLOUDY    51  45  79 E9        29.80S
ISLIP          CLOUDY    50  44  80 E8        29.81R
SHIRLEY        CLOUDY    51  45  79 VRB7      29.81S
RIVERHEAD        N/A     50  45  81 E5        29.82S
WESTHAMPTON    CLOUDY    47  43  86 E13G22    29.83S
EAST HAMPTON   CLOUDY    48  43  81 E12G17    29.82F
MONTAUK POINT    N/A     49  44  83 NE10G21   29.84S
$$

NYZ052-065-067-041600-
HUDSON VALLEY

CITY           SKY/WX    TMP DP  RH WIND       PRES   REMARKS
WHITE PLAINS   CLOUDY    48  44  86 E9        29.80S FOG
NEWBURGH       CLOUDY    48  48 100 E8        29.80F
MONTGOMERY     LGT RAIN  50  46  86 NE5       29.80S
POUGHKEEPSIE   CLOUDY    51  46  83 NE6       29.80F
ALBANY         CLOUDY    52  44  74 S9        29.82R
$$

NJZ001-105-106-008-010-013-015-019>022-104-041600-
NEW JERSEY

CITY           SKY/WX    TMP DP  RH WIND       PRES   REMARKS
NEWARK/LIBERTY CLOUDY    54  46  74 NE9       29.79R
TETERBORO      CLOUDY    51  42  71 E10       29.79R
CALDWELL       CLOUDY    52  44  74 E12       29.79S
MORRISTOWN     CLOUDY    52  48  87 E10       29.79S
SOMERVILLE     CLOUDY    52  47  83 E6        29.76F
SUSSEX         CLOUDY    51  45  79 NE5       29.79R
ANDOVER          N/A     50  46  86 VRB3      29.77F
TRENTON        CLOUDY    52  47  83 E12       29.75F
MILLVILLE      CLOUDY    51  49  92 NE12      29.73F
ATLANTIC CITY  CLOUDY    50  49  96 NE12      29.74F FOG
WRIGHTSTOWN    CLOUDY    50  48  93 E13       29.74R
TOMS RIVER     CLOUDY    48  45  87 E12G20    29.76F
BELMAR         CLOUDY    48  46  93 E13       29.77F
$$

PAZ047>061-062-071-041600-
EASTERN PENNSYLVANIA

CITY           SKY/WX    TMP DP  RH WIND       PRES   REMARKS
PHILADELPHIA   CLOUDY    53  47  79 E9        29.76F
ALLENTOWN      HVY RAIN  52  48  87 E7        29.77R FOG
SCRANTON       CLOUDY    52  48  86 E5        29.74S
$$

CTZ002-004>006-009-010-012-RIZ004-006-007-MAZ004-011-015-041600-
SOUTHERN NEW ENGLAND
 IN CT

CITY           SKY/WX    TMP DP  RH WIND       PRES   REMARKS
BRADLEY INTL   CLOUDY    50  43  77 NE8       29.85R
HARTFORD       CLOUDY    52  42  69 E6        29.85R
DANBURY        CLOUDY    50  44  80 E10       29.82S
WTRBRY/OXFORD  CLOUDY    48  39  71 E6        29.84R
BRIDGEPORT     CLOUDY    51  43  74 E13       29.83S
MERIDEN        CLOUDY    52  42  69 NE9       29.84R
NEW HAVEN      CLOUDY    52  43  71 NE8       29.82S
CHESTER        CLOUDY    50  43  76 NE8       29.82F
GROTON         CLOUDY    52  49  89 E16       29.83F
WILLIMANTIC    CLOUDY    51  42  71 E7        29.85S

 IN RI

CITY           SKY/WX    TMP DP  RH WIND       PRES   REMARKS
PROVIDENCE     CLOUDY    51  42  71 NE12      29.87R
BLOCK ISLAND   CLOUDY    48  44  86 E17G24    29.84S
WESTERLY       CLOUDY    51  42  71 E14       29.84F

 IN MA

CITY           SKY/WX    TMP DP  RH WIND       PRES   REMARKS
BOSTON         CLOUDY    48  42  80 E12       29.92R
WORCESTER      CLOUDY    45  40  82 E7        29.86R
WESTFIELD      CLOUDY    48  43  82 NE7       29.86R
PROVINCETOWN   CLOUDY    49  43  80 E14       29.90R
NANTUCKET      CLOUDY    49  42  77 NE21G30   29.83S
$$

ANZ330-335-338-340-345-350-353-355-041600-
COASTAL MARINE OBSERVATIONS


STATION/POSITION TIME  SKY/WX   TEMP    WIND        PRES    VSBY  WAVE
                                AIR SEA DIR/SP/G                  HT/PER
                 (UTC)          (F)     (DEG/KT/KT) (MB)    (MI)  (FT/S)
NY HARB ENTRANCE 1350            49 50   60/ 17/ 21 1008.0          4/ 6
20S FIRE ISLAND  1350            47 49   60/ 17/ 19 1008.2          5/ 7
GREAT SOUTH BAY  1400            51 55   80/ 14/ 16   N/A
23 SSW MONTAUK P 1450            47 47   80/ 19/ 23 1008.5          5/ 5
15 E BARNEGAT LI 1422               50                N/A           5/ 6
HUDSON CANYON    1350            50 48              1006.6          5/ 6
KINGS POINT      1400            50 53              1008.8
EXECUTION ROCKS  NOT AVBL
CENTRAL LI SOUND 1400            48      80/ 14/ 17   N/A           1/ 3
EASTERN LI SOUND 1400            49 48   70/ 12/ 16   N/A
ROBBINS REEF     1400            51      60/ 12/ 14 1007.7
$$


>>>>>>>>>>>>>>>>>>>>>>>>>>>> KEY <<<<<<<<<<<<<<<<<<<<<<<<<<<
>                                                          <
>     SKY/WX - SKY CONDITION/PRESENT WEATHER               <
>     TMP    - TEMPERATURE IN FAHRENHEIT                   <
>     DP     - DEWPOINT IN FAHRENHEIT                      <
>     RH     - RELATIVE HUMIDITY IN PERCENT                <
>     WIND   - DIRECTION AND SPEED IN MPH                  <
>     PRES   - MEAN SEA LEVEL PRESSURE IN INCHES OF HG     <
>     WCI    - WIND CHILL INDEX                            <
>     VSB    - VISIBILITY IN MILES                         <
>     HX     - HEAT INDEX                                  <
>     TC     - TEMPERATURE IN CELSIUS                      <
>     VRB    - VARIABLE WIND DIRECTION                     <
>                                                          <
>>>>>>>>>>>>>>>>>>>>>>>>>>>> KEY <<<<<<<<<<<<<<<<<<<<<<<<<<<






USA.gov is the U.S. government's official web portal to all federal, state and local government web resources and services.